Location: Aranbee
(34.0885°N, 118.2342°W)
Time: 13:36:35
(UTC+00:00)

Tiros 1 - Pass Details

Date: 02 December 2020
Orbit: 630 x 663 km, 48.4° (Epoch: 21 January)

Event Time Altitude Azimuth Distance (km) Brightness Sun altitude
Rises 19:28:33 0° 188° (S) 2,967 11.6 33.7°
Reaches altitude 10° 19:31:38 10° 168° (SSE) 2,064 11.2 33.7°
Maximum altitude 19:34:38 17° 129° (SE) 1,671 10.0 33.8°
Drops below altitude 10° 19:37:38 10° 90° (E) 2,076 9.9 33.8°
Sets 19:40:44 0° 70° (ENE) 2,992 10.4 33.8°
